TimeMST,TemperatureF,Dew PointF,Humidity,Sea Level PressureIn,VisibilityMPH,Wind Direction,Wind SpeedMPH,Gust SpeedMPH,PrecipitationIn,Events,Conditions,WindDirDegrees,DateUTC
1:53 AM,16.0,12.0,84,30.08,10.0,Calm,Calm,-,N/A,,Clear,0,2013-02-22 08:53:00
2:53 AM,16.0,10.9,81,30.08,10.0,Calm,Calm,-,N/A,,Clear,0,2013-02-22 09:53:00
3:53 AM,14.0,10.0,84,30.07,10.0,Calm,Calm,-,N/A,,Clear,0,2013-02-22 10:53:00
4:53 AM,14.0,10.0,84,30.09,10.0,Calm,Calm,-,N/A,,Clear,0,2013-02-22 11:53:00
5:53 AM,12.9,9.0,84,30.10,10.0,Calm,Calm,-,N/A,,Clear,0,2013-02-22 12:53:00
6:53 AM,14.0,9.0,80,30.12,10.0,Calm,Calm,-,N/A,,Clear,0,2013-02-22 13:53:00
7:53 AM,16.0,10.9,81,30.14,10.0,Calm,Calm,-,N/A,,Clear,0,2013-02-22 14:53:00
8:53 AM,19.9,12.0,71,30.17,10.0,North,3.5,-,N/A,,Clear,360,2013-02-22 15:53:00
9:53 AM,24.1,12.9,62,30.16,10.0,Calm,Calm,-,N/A,,Clear,0,2013-02-22 16:53:00
10:53 AM,30.0,15.1,54,30.16,10.0,Variable,3.5,-,N/A,,Clear,0,2013-02-22 17:53:00
11:53 AM,33.1,12.9,43,30.17,10.0,NNE,5.8,-,N/A,,Clear,20,2013-02-22 18:53:00
12:53 PM,36.0,15.1,43,30.14,10.0,North,8.1,16.1,N/A,,Partly Cloudy,10,2013-02-22 19:53:00
1:53 PM,37.0,12.9,37,30.12,10.0,NNW,10.4,18.4,N/A,,Partly Cloudy,340,2013-02-22 20:53:00
2:53 PM,37.0,14.0,39,30.12,10.0,North,13.8,19.6,N/A,,Clear,350,2013-02-22 21:53:00
3:53 PM,37.0,12.9,37,30.14,10.0,NNE,12.7,17.3,N/A,,Clear,20,2013-02-22 22:53:00
4:53 PM,37.0,14.0,39,30.13,10.0,NNE,10.4,-,N/A,,Clear,30,2013-02-22 23:53:00
5:53 PM,34.0,12.9,42,30.16,10.0,North,8.1,-,N/A,,Clear,360,2013-02-23 00:53:00
6:53 PM,28.9,16.0,58,30.17,10.0,NNW,3.5,-,N/A,,Clear,340,2013-02-23 01:53:00
7:53 PM,27.0,17.1,66,30.19,10.0,Calm,Calm,-,N/A,,Clear,0,2013-02-23 02:53:00
8:53 PM,28.0,15.1,58,30.16,10.0,SSE,5.8,-,N/A,,Clear,150,2013-02-23 03:53:00
9:53 PM,26.1,16.0,66,30.17,10.0,SSW,5.8,-,N/A,,Clear,200,2013-02-23 04:53:00
10:53 PM,27.0,15.1,61,30.12,10.0,SSE,6.9,-,N/A,,Clear,150,2013-02-23 05:53:00
11:53 PM,24.1,16.0,71,30.10,10.0,South,5.8,-,N/A,,Clear,190,2013-02-23 06:53:00